Location: Albany
(35.0170°S, 117.8920°E)
Time: 15:36:12
(UTC+08:00)

Explorer 11/Cluster Stage 4 - Pass Details

Date: 23 January 2021
Orbit: 467 x 1257 km, 28.8° (Epoch: 02 March)

Event Time Altitude Azimuth Distance (km) Brightness Sun altitude
Rises 12:32:54 0° 278° (W) 2,794 9.5 74.1°
Reaches altitude 10° 12:35:35 10° 290° (WNW) 1,792 8.7 74.0°
Maximum altitude 12:39:00 26° 348° (NNW) 997 7.9 73.8°
Drops below altitude 10° 12:42:08 10° 47° (NE) 1,635 8.5 73.6°
Sets 12:44:28 0° 60° (ENE) 2,494 9.2 73.5°
